Estación de Pirque

Ultimos registro cada 15 minutos 30
Estación Fecha / Hora Temperatura Humedad Lluvia Velocidad Dirección Radiación Presion
30 Pirque 04-05-2026 07:15 9,1 86,1 0 0 285 0,6 939,1
29 Pirque 04-05-2026 07:00 9,4 85,6 0 0 285 0,6 939
28 Pirque 04-05-2026 06:45 8,9 87,8 0 0 285 0,6 939,1
27 Pirque 04-05-2026 06:30 8,8 87,5 0 0 285 0,6 939,1
26 Pirque 04-05-2026 06:15 8,8 87,2 0 0 285 0,6 938,9
25 Pirque 04-05-2026 06:00 9,1 86,3 0 0 285 0,6 938,9
24 Pirque 04-05-2026 05:45 9,2 86,7 0 0 285 0,6 939
23 Pirque 04-05-2026 05:30 9,1 86,4 0 0 285 0,6 938,9
22 Pirque 04-05-2026 05:15 9 85,6 0 0 285 0,6 939,1
21 Pirque 04-05-2026 05:00 9,6 84,7 0 0 285 0,6 938,8
20 Pirque 04-05-2026 04:45 8,8 86,9 0 0 285 0,6 938,8
19 Pirque 04-05-2026 04:30 9,1 86,2 0 0 285 0,6 938,6
18 Pirque 04-05-2026 04:15 9,3 84,7 0 0 285 0,6 938,7
17 Pirque 04-05-2026 04:00 10,1 82,5 0 0 285 0,6 939,2
16 Pirque 04-05-2026 03:45 9,9 83,5 0 0 285 0,6 939
15 Pirque 04-05-2026 03:30 9,9 83,5 0 0 285 0,6 939,1
14 Pirque 04-05-2026 03:15 9,5 85,3 0 0 285 0,6 939,7
13 Pirque 04-05-2026 03:00 9,7 85,4 0 0 285 0,6 939,7
12 Pirque 04-05-2026 02:45 9,4 85,9 0 0 285 0,6 939,8
11 Pirque 04-05-2026 02:30 9,1 86,2 0 0 285 0,6 939,9
10 Pirque 04-05-2026 02:15 9,1 84,7 0 0 285 0,6 939,8
9 Pirque 04-05-2026 02:00 9,5 82,9 0 0 285 0,6 940,2
8 Pirque 04-05-2026 01:45 10,1 81,6 0 0 285 0,6 940,2
7 Pirque 04-05-2026 01:30 10,8 79,1 0 0 285 0,6 940,5
6 Pirque 04-05-2026 01:15 11 79,1 0 0 285 0,6 940,7
5 Pirque 04-05-2026 01:00 11 79,3 0 0 285 0,6 940,7
4 Pirque 04-05-2026 00:45 10,9 79,4 0 0 285 0,6 940,5
3 Pirque 04-05-2026 00:30 10,5 80 0 0 285 0,6 940,5
2 Pirque 04-05-2026 00:15 10,9 80,1 0 0 285 0,6 940,6
1 Pirque 04-05-2026 00:00 10,3 83,2 0 0 285 0,6 940,9